Weather History for KIRK - October, 2013

Change the Weather History Date:

Tuesday, October 22, 2013

  Actual Average Record
Temperature  
Mean Temperature 44 °F 51 °F  
Max Temperature 55 °F 62 °F 85 °F (1927)
Min Temperature 32 °F 40 °F 22 °F (1982)
Degree Days  
Heating Degree Days 21 14  
Month to date heating degree days 211 238  
Since 1 July heating degree days 281 345  
Cooling Degree Days 0 0  
Month to date cooling degree days 32 10  
Year to date cooling degree days 1028 937  
Moisture  
Dew Point 36 °F    
Average Humidity 78    
Maximum Humidity 92    
Minimum Humidity 63    
Precipitation  
Precipitation 0.03 in 0.11 in 1.08 in (1928)
Month to date precipitation 0.68 2.45  
Year to date precipitation 32.26 33.97  
Sea Level Pressure  
Sea Level Pressure 29.98 in    
Wind  
Wind Speed 9 mph (NW)    
Max Wind Speed 20 mph    
Max Gust Speed 25 mph    
Visibility 10 miles    
Events Rain    
T = Trace of Precipitation, MM = Missing Value Source: NWS Daily Summary

Daily Weather History Graph

Daily Weather History Graph

Search for Another Location

Airport or City:

Trip Planner

Search our weather history database for the weather conditions in past years. The results will help you decide how hot, cold, wet, or windy it might be!

Date:

Astronomy

Oct. 22, 2013 Rise Set
Actual Time 7:28 AM CDT 6:20 PM CDT
Civil Twilight 7:00 AM CDT 6:47 PM CDT
Nautical Twilight 6:29 AM CDT 7:19 PM CDT
Astronomical Twilight 5:57 AM CDT 7:50 PM CDT
Moon 9:00 PM CDT (10/22) 10:57 AM CDT (10/22)
Length of Visible Light 11h 46m
Length of Day
10h 51m
Waning Gibbous, 86% of the Moon is Illuminated
Oct 22
Waning Gibbous
Oct 26
Last Quarter
Nov 3
New
Nov 9
First Quarter
Nov 17
Full

Hourly Weather History & Observations

Time (CDT) Temp. Windchill Dew Point Humidity Pressure Visibility Wind Dir Wind Speed Gust Speed Precip Events Conditions
12:55 AM 37.0 °F 34.5 °F 32.0 °F 82% 30.04 in 10.0 mi South 3.5 mph - N/A   Overcast
1:55 AM 37.9 °F - 34.0 °F 86% 30.03 in 10.0 mi Calm Calm - N/A   Overcast
2:55 AM 39.0 °F 36.8 °F 35.1 °F 86% 30.02 in 10.0 mi South 3.5 mph - N/A   Overcast
3:55 AM 39.9 °F 36.7 °F 34.0 °F 79% 29.99 in 10.0 mi South 4.6 mph - N/A   Overcast
4:55 AM 42.1 °F 37.7 °F 33.1 °F 70% 29.96 in 10.0 mi South 6.9 mph - N/A   Overcast
5:55 AM 44.1 °F 40.1 °F 34.0 °F 68% 29.94 in 10.0 mi South 6.9 mph - N/A   Overcast
6:55 AM 44.1 °F 39.0 °F 35.1 °F 71% 29.91 in 10.0 mi SSW 9.2 mph - N/A   Overcast
7:55 AM 43.0 °F 37.2 °F 37.9 °F 82% 29.89 in 8.0 mi SSW 10.4 mph - 0.01 in Rain Light Rain
8:55 AM 43.0 °F 39.5 °F 39.0 °F 86% 29.89 in 10.0 mi SSW 5.8 mph - 0.02 in   Overcast
9:55 AM 46.0 °F 43.1 °F 42.1 °F 86% 29.88 in 10.0 mi Variable 5.8 mph - N/A   Overcast
10:55 AM 51.1 °F - 43.0 °F 74% 29.87 in 10.0 mi WSW 8.1 mph - N/A   Mostly Cloudy
11:55 AM 54.0 °F - 41.0 °F 62% 29.86 in 10.0 mi West 11.5 mph 18.4 mph N/A   Overcast
12:55 PM 52.0 °F - 39.9 °F 63% 29.87 in 10.0 mi NNW 10.4 mph - N/A   Overcast
1:55 PM 50.0 °F - 39.0 °F 66% 29.88 in 10.0 mi NW 15.0 mph 24.2 mph N/A   Overcast
2:46 PM 50.0 °F - 39.2 °F 66% 29.87 in 10.0 mi NW 16.1 mph 21.9 mph N/A   Overcast
2:55 PM 50.0 °F - 39.9 °F 68% 29.90 in 10.0 mi NNW 13.8 mph 24.2 mph N/A   Overcast
3:14 PM 48.2 °F - 39.2 °F 71% 29.89 in 10.0 mi NNW 16.1 mph 21.9 mph N/A   Overcast
3:55 PM 48.0 °F - 39.0 °F 71% 29.94 in 10.0 mi NNW 13.8 mph 24.2 mph 0.00 in Rain Light Rain
4:53 PM 44.6 °F 37.4 °F 37.4 °F 76% 29.95 in 10.0 mi North 16.1 mph 24.2 mph 0.00 in   Overcast
4:55 PM 44.1 °F 37.1 °F 37.9 °F 79% 29.98 in 10.0 mi North 15.0 mph 23.0 mph 0.00 in   Overcast
5:25 PM 42.8 °F 36.6 °F 35.6 °F 76% 29.97 in 10.0 mi NNW 11.5 mph 17.3 mph N/A   Overcast
5:55 PM 43.0 °F 37.2 °F 36.0 °F 76% 30.00 in 10.0 mi NNW 10.4 mph - N/A   Overcast
6:55 PM 42.1 °F 37.7 °F 36.0 °F 79% 30.02 in 10.0 mi North 6.9 mph - N/A   Overcast
7:24 PM 42.8 °F 37.0 °F 35.6 °F 76% 30.01 in 10.0 mi North 10.4 mph 17.3 mph N/A   Overcast
7:55 PM 41.0 °F 34.3 °F 37.0 °F 86% 30.06 in 9.0 mi North 11.5 mph - N/A   Overcast
8:23 PM 39.2 °F 32.5 °F 35.6 °F 87% 30.03 in 9.0 mi NNW 10.4 mph - N/A   Overcast
8:33 PM 39.2 °F 32.5 °F 35.6 °F 87% 30.04 in 10.0 mi NNW 10.4 mph - N/A   Overcast
8:55 PM 39.0 °F 32.8 °F 35.1 °F 86% 30.07 in 9.0 mi North 9.2 mph - N/A   Overcast
9:11 PM 37.4 °F 29.8 °F 35.6 °F 93% 30.04 in 10.0 mi NNW 11.5 mph - N/A   Overcast
9:50 PM 37.4 °F 31.4 °F 33.8 °F 87% 30.06 in 10.0 mi NW 8.1 mph - N/A   Overcast
9:55 PM 37.9 °F 31.5 °F 33.1 °F 83% 30.08 in 10.0 mi NNW 9.2 mph - N/A   Overcast
10:04 PM 37.4 °F 30.3 °F 33.8 °F 87% 30.06 in 10.0 mi NNW 10.4 mph - N/A   Overcast
10:55 PM 36.0 °F 32.1 °F 32.0 °F 86% 30.08 in 10.0 mi NW 4.6 mph - N/A   Mostly Cloudy
11:55 PM 32.0 °F 26.4 °F 30.0 °F 92% 30.09 in 10.0 mi WNW 5.8 mph - N/A   Clear